Location: Newark
(49.8969°N, 3.3422°E)
Time: 20:53:58
(UTC+00:00)

Vanguard 1 Rocket - Pass Details

Date: 25 January 2020
Orbit: 650 x 4226 km, 34.3° (Epoch: 22 February)

Event Time Altitude Azimuth Distance (km) Brightness Sun altitude
Rises 07:31:45 0° 178° (S) 3,758 11.1 -0.6°
Reaches altitude 10° 07:38:05 10° 135° (SE) 3,591 12.3 0.3°
Maximum altitude 07:38:51 10° 130° (SE) 3,681 12.6 0.4°
Drops below altitude 10° 07:39:39 10° 125° (SE) 3,795 13.0 0.5°
Sets 07:49:17 0° 89° (E) 6,019 12.6 1.9°
